STARLINK-34035

Last updated on Fri Jun 13 2025 00:02:05 GMT+0000 (Coordinated Universal Time)

1 63937U 25098M 25163.51084890 .00037083 00000+0 84506-3 0 9990 2 63937 69.9995 240.8198 0003201 271.4208 88.6607 15.42749523 5911
UTC large
Height (km)
Speed (km/s)
/
Latitude / Longitude
Inclination (degrees)
Orbital Period (minutes)
Azimuth
Elevation
Range (km)
Doppler Factor

Next 0 passes for location: London (51.5072 / 0.1276)

Sorry there are no passes over London.